Location: Pasadena, ca
(34.1243°N, 118.1037°W)
Time: 18:45:45
(UTC-07:00)

Vanguard 2 - Visible Passes

Search period start: 23 September 2018 00:00
Search period end: 03 October 2018 00:00
Orbit: 554 x 2938 km, 32.9° (Epoch: 23 September)

Date Brightness Start Highest point End Pass type
(mag) Time Alt. Az. Time Alt. Az. Time Alt. Az.
23 Sep 10.9 01:33:27 35° E 01:33:27 35° E 01:40:44 10° E visible
23 Sep 10.0 03:34:56 63° SW 03:36:40 66° SSW 03:51:01 10° SE visible
23 Sep 10.5 05:36:25 16° W 05:47:11 31° SW 05:57:36 10° SSE visible
23 Sep 10.6 19:01:21 10° S 19:07:54 19° SE 19:16:20 10° E visible
23 Sep 9.9 21:05:28 10° SW 21:16:38 55° SSE 21:19:23 50° ESE visible
23 Sep 10.6 23:14:01 10° WSW 23:49:41 - E 23:20:50 40° WSW visible
24 Sep 10.8 01:51:10 38° ESE 01:51:10 38° ESE 01:59:00 10° ESE visible
24 Sep 10.1 03:52:40 55° SW 03:54:42 57° SSW 04:08:42 10° SE visible
24 Sep 10.8 05:54:08 12° W 06:04:39 23° SW 06:13:55 10° S visible
24 Sep 10.3 19:17:29 10° S 19:25:16 26° SE 19:35:09 12° E visible
24 Sep 9.8 21:23:06 10° SW 21:34:34 64° SSE 21:36:35 60° ESE visible
24 Sep 10.8 23:32:12 10° W 00:07:28 - E 23:38:01 34° W visible
25 Sep 10.8 02:08:57 40° ESE 02:08:57 40° ESE 02:17:09 10° ESE visible
25 Sep 10.3 04:10:26 46° SW 04:12:35 48° SW 04:26:09 10° SE visible
25 Sep 11.0 06:13:41 10° W 06:22:05 16° SW 06:29:16 10° SSW visible
25 Sep 10.0 19:34:17 10° SSW 19:42:44 35° SE 19:52:13 17° E visible
25 Sep 9.7 21:40:57 10° WSW 21:52:39 72° SSE 21:53:38 71° SE visible
25 Sep 11.0 23:50:25 10° W 00:25:17 - E 23:55:04 28° W visible
26 Sep 10.7 02:26:47 41° SE 02:26:47 41° SE 02:35:11 10° ESE visible
26 Sep 10.4 04:28:16 38° SW 04:30:21 39° SW 04:43:15 10° SSE visible
26 Sep 9.8 19:51:29 10° SW 20:00:21 45° SE 20:09:11 22° E visible
26 Sep 9.7 21:58:55 10° WSW 22:10:36 79° S 22:10:36 79° S visible
27 Sep 11.2 00:08:39 10° W 00:43:08 - ESE 00:12:00 22° W visible
27 Sep 10.7 02:44:37 39° SE 02:44:37 39° SE 02:53:02 10° SE visible
27 Sep 10.7 04:46:07 30° SW 04:47:59 31° SW 04:59:58 10° SSE visible
27 Sep 9.6 20:08:58 10° SW 20:18:07 55° SSE 20:26:03 28° E visible
27 Sep 9.8 22:16:58 10° WSW 22:27:27 74° WSW 22:27:27 74° WSW visible
28 Sep 11.4 00:26:55 10° W 01:00:57 - ESE 00:28:51 17° W visible
28 Sep 10.8 03:02:26 37° SSE 03:02:26 37° SSE 03:10:39 10° SE visible
28 Sep 10.9 05:03:55 23° SW 05:05:34 23° SW 05:16:05 10° S visible
28 Sep 9.5 20:26:39 10° SW 20:36:03 65° SSE 20:42:49 36° E visible
28 Sep 9.9 22:35:07 10° W 22:44:13 63° W 22:44:13 63° W visible
29 Sep 11.5 00:45:09 10° W 01:18:43 - ESE 00:45:37 12° W visible
29 Sep 10.8 03:20:11 32° S 03:20:11 32° S 03:27:58 10° SSE visible
29 Sep 11.1 05:21:41 16° SW 05:23:08 16° SW 05:31:05 10° SSW visible
29 Sep 9.4 20:44:31 10° WSW 20:54:07 74° SSE 20:59:33 44° E visible
29 Sep 10.2 22:53:16 10° W 23:00:56 51° W 23:00:56 51° W visible
30 Sep 11.7 01:36:25 10° SE 01:36:25 10° SE 01:02:19 - W visible
30 Sep 11.0 03:37:54 27° S 03:37:54 27° S 03:44:58 10° SSE visible
30 Sep 9.5 18:55:24 10° SW 19:02:31 44° SSE 19:14:04 10° E visible
30 Sep 9.4 21:02:29 10° WSW 21:12:19 80° SSE 21:16:12 55° E visible
30 Sep 10.5 23:11:27 10° W 23:17:35 40° W 23:17:35 40° W visible
01 Oct 11.8 01:54:02 10° SE 01:54:02 10° SE 01:54:11 10° SE visible
01 Oct 11.1 03:55:29 22° S 03:55:29 22° S 04:01:28 10° S visible
01 Oct 9.3 19:12:56 10° SW 19:20:19 55° SSE 19:31:27 13° E visible
01 Oct 9.4 21:20:32 10° W 21:30:35 84° S 21:32:50 69° E visible
01 Oct 10.7 23:29:37 10° W 23:34:13 31° W 23:34:13 31° W visible
02 Oct 11.7 02:11:33 10° SE 02:11:33 10° SE 02:11:43 10° SE visible
02 Oct 11.3 04:13:00 17° SSW 04:13:00 17° SSW 04:17:16 10° S visible
02 Oct 9.1 19:30:40 10° WSW 19:38:15 66° SSE 19:48:03 18° E visible
02 Oct 9.4 21:38:36 10° W 21:48:54 86° S 21:49:27 83° SE visible
